#datetime,building,power
2024-01-24T00:00:00,axn,29.29
2024-01-24T00:01:00,axn,28.59
2024-01-24T00:02:00,axn,28.39
2024-01-24T00:03:00,axn,28.87
2024-01-24T00:04:00,axn,28.66
2024-01-24T00:05:00,axn,28.60
2024-01-24T00:06:00,axn,28.64
2024-01-24T00:07:00,axn,39.36
2024-01-24T00:08:00,axn,39.32
2024-01-24T00:09:00,axn,39.03
2024-01-24T00:10:00,axn,38.74
2024-01-24T00:11:00,axn,39.12
2024-01-24T00:12:00,axn,28.60
2024-01-24T00:13:00,axn,28.83
2024-01-24T00:14:00,axn,28.51
2024-01-24T00:15:00,axn,28.63
2024-01-24T00:16:00,axn,28.82
2024-01-24T00:17:00,axn,29.23
2024-01-24T00:18:00,axn,28.87
2024-01-24T00:19:00,axn,28.88
2024-01-24T00:20:00,axn,29.02
2024-01-24T00:21:00,axn,28.87
2024-01-24T00:22:00,axn,29.00
2024-01-24T00:23:00,axn,28.97
2024-01-24T00:24:00,axn,29.71
2024-01-24T00:25:00,axn,29.12
2024-01-24T00:26:00,axn,28.69
2024-01-24T00:27:00,axn,28.95
2024-01-24T00:28:00,axn,28.64
2024-01-24T00:29:00,axn,28.82
2024-01-24T00:30:00,axn,28.73
2024-01-24T00:31:00,axn,28.69
2024-01-24T00:32:00,axn,28.97
2024-01-24T00:33:00,axn,28.91
2024-01-24T00:34:00,axn,28.68
2024-01-24T00:35:00,axn,28.73
2024-01-24T00:36:00,axn,28.93
2024-01-24T00:37:00,axn,28.84
2024-01-24T00:38:00,axn,28.99
2024-01-24T00:39:00,axn,28.64
2024-01-24T00:40:00,axn,28.80
2024-01-24T00:41:00,axn,28.62
2024-01-24T00:42:00,axn,28.87
2024-01-24T00:43:00,axn,28.82
2024-01-24T00:44:00,axn,28.53
2024-01-24T00:45:00,axn,28.50
2024-01-24T00:46:00,axn,28.75
2024-01-24T00:47:00,axn,28.69
2024-01-24T00:48:00,axn,28.63
2024-01-24T00:49:00,axn,28.67
2024-01-24T00:50:00,axn,29.32
2024-01-24T00:51:00,axn,29.26
2024-01-24T00:52:00,axn,28.54
2024-01-24T00:53:00,axn,28.36
2024-01-24T00:54:00,axn,28.36
2024-01-24T00:55:00,axn,28.52
2024-01-24T00:56:00,axn,28.60
2024-01-24T00:57:00,axn,28.61
2024-01-24T00:58:00,axn,28.73
2024-01-24T00:59:00,axn,28.67
2024-01-24T01:00:00,axn,28.09
2024-01-24T01:01:00,axn,28.30
2024-01-24T01:02:00,axn,28.50
2024-01-24T01:03:00,axn,28.15
2024-01-24T01:04:00,axn,28.14
2024-01-24T01:05:00,axn,28.12
2024-01-24T01:06:00,axn,28.11
2024-01-24T01:07:00,axn,28.53
2024-01-24T01:08:00,axn,28.17
2024-01-24T01:09:00,axn,28.33
2024-01-24T01:10:00,axn,28.16
2024-01-24T01:11:00,axn,28.12
2024-01-24T01:12:00,axn,28.64
2024-01-24T01:13:00,axn,28.10
2024-01-24T01:14:00,axn,28.20
2024-01-24T01:15:00,axn,28.23
2024-01-24T01:16:00,axn,28.39
2024-01-24T01:17:00,axn,28.54
2024-01-24T01:18:00,axn,28.68
2024-01-24T01:19:00,axn,29.32
2024-01-24T01:20:00,axn,28.36
2024-01-24T01:21:00,axn,28.35
2024-01-24T01:22:00,axn,28.50
2024-01-24T01:23:00,axn,28.16
2024-01-24T01:24:00,axn,28.39
2024-01-24T01:25:00,axn,28.22
2024-01-24T01:26:00,axn,28.35
2024-01-24T01:27:00,axn,28.41
2024-01-24T01:28:00,axn,46.22
2024-01-24T01:29:00,axn,28.36
2024-01-24T01:30:00,axn,28.58
2024-01-24T01:31:00,axn,28.63
2024-01-24T01:32:00,axn,28.64
2024-01-24T01:33:00,axn,28.61
2024-01-24T01:34:00,axn,27.93
2024-01-24T01:35:00,axn,27.78
2024-01-24T01:36:00,axn,28.23
2024-01-24T01:37:00,axn,27.87
2024-01-24T01:38:00,axn,28.15
2024-01-24T01:39:00,axn,27.81
2024-01-24T01:40:00,axn,27.83
2024-01-24T01:41:00,axn,27.58
2024-01-24T01:42:00,axn,27.81
2024-01-24T01:43:00,axn,27.65
2024-01-24T01:44:00,axn,27.50
2024-01-24T01:45:00,axn,27.52
2024-01-24T01:46:00,axn,27.67
2024-01-24T01:47:00,axn,27.86
2024-01-24T01:48:00,axn,27.70
2024-01-24T01:49:00,axn,28.25
2024-01-24T01:50:00,axn,28.23
2024-01-24T01:51:00,axn,27.65
2024-01-24T01:52:00,axn,27.36
2024-01-24T01:53:00,axn,27.43
2024-01-24T01:54:00,axn,27.48
2024-01-24T01:55:00,axn,27.61
2024-01-24T01:56:00,axn,27.58
2024-01-24T01:57:00,axn,27.69
2024-01-24T01:58:00,axn,27.71
2024-01-24T01:59:00,axn,27.60
2024-01-24T02:00:00,axn,27.53
2024-01-24T02:01:00,axn,27.56
2024-01-24T02:02:00,axn,28.11
2024-01-24T02:03:00,axn,27.36
2024-01-24T02:04:00,axn,27.63
2024-01-24T02:05:00,axn,27.37
2024-01-24T02:06:00,axn,27.43
2024-01-24T02:07:00,axn,27.68
2024-01-24T02:08:00,axn,27.79
2024-01-24T02:09:00,axn,27.54
2024-01-24T02:10:00,axn,27.47
2024-01-24T02:11:00,axn,27.36
2024-01-24T02:12:00,axn,27.23
2024-01-24T02:13:00,axn,27.39
2024-01-24T02:14:00,axn,27.16
2024-01-24T02:15:00,axn,27.33
2024-01-24T02:16:00,axn,27.36
2024-01-24T02:17:00,axn,27.50
2024-01-24T02:18:00,axn,27.47
2024-01-24T02:19:00,axn,28.22
2024-01-24T02:20:00,axn,30.75
2024-01-24T02:21:00,axn,32.14
2024-01-24T02:22:00,axn,32.26
2024-01-24T02:23:00,axn,32.21
2024-01-24T02:24:00,axn,28.17
2024-01-24T02:25:00,axn,27.68
2024-01-24T02:26:00,axn,27.81
2024-01-24T02:27:00,axn,28.36
2024-01-24T02:28:00,axn,27.95
2024-01-24T02:29:00,axn,27.69
2024-01-24T02:30:00,axn,27.79
2024-01-24T02:31:00,axn,42.55
2024-01-24T02:32:00,axn,42.50
2024-01-24T02:33:00,axn,42.28
2024-01-24T02:34:00,axn,42.18
2024-01-24T02:35:00,axn,42.05
2024-01-24T02:36:00,axn,41.55
2024-01-24T02:37:00,axn,27.97
2024-01-24T02:38:00,axn,27.71
2024-01-24T02:39:00,axn,27.86
2024-01-24T02:40:00,axn,27.98
2024-01-24T02:41:00,axn,27.73
2024-01-24T02:42:00,axn,27.73
2024-01-24T02:43:00,axn,27.68
2024-01-24T02:44:00,axn,27.53
2024-01-24T02:45:00,axn,27.22
2024-01-24T02:46:00,axn,27.94
2024-01-24T02:47:00,axn,28.60
2024-01-24T02:48:00,axn,28.51
2024-01-24T02:49:00,axn,27.71
2024-01-24T02:50:00,axn,27.36
2024-01-24T02:51:00,axn,27.57
2024-01-24T02:52:00,axn,27.61
2024-01-24T02:53:00,axn,27.51
2024-01-24T02:54:00,axn,27.54
2024-01-24T02:55:00,axn,27.47
2024-01-24T02:56:00,axn,27.76
2024-01-24T02:57:00,axn,28.00
2024-01-24T02:58:00,axn,28.05
2024-01-24T02:59:00,axn,27.97
2024-01-24T03:00:00,axn,27.91
2024-01-24T03:01:00,axn,28.07
2024-01-24T03:02:00,axn,28.27
2024-01-24T03:03:00,axn,27.82
2024-01-24T03:04:00,axn,27.95
2024-01-24T03:05:00,axn,27.89
2024-01-24T03:06:00,axn,28.39
2024-01-24T03:07:00,axn,28.43
2024-01-24T03:08:00,axn,27.97
2024-01-24T03:09:00,axn,28.10
2024-01-24T03:10:00,axn,28.11
2024-01-24T03:11:00,axn,27.89
2024-01-24T03:12:00,axn,27.83
2024-01-24T03:13:00,axn,27.97
2024-01-24T03:14:00,axn,27.74
2024-01-24T03:15:00,axn,28.44
2024-01-24T03:16:00,axn,28.68
2024-01-24T03:17:00,axn,28.05
2024-01-24T03:18:00,axn,28.08
2024-01-24T03:19:00,axn,28.01
2024-01-24T03:20:00,axn,27.93
2024-01-24T03:21:00,axn,27.87
2024-01-24T03:22:00,axn,27.71
2024-01-24T03:23:00,axn,27.88
2024-01-24T03:24:00,axn,27.46
2024-01-24T03:25:00,axn,27.62
2024-01-24T03:26:00,axn,27.97
2024-01-24T03:27:00,axn,30.60
2024-01-24T03:28:00,axn,27.84
2024-01-24T03:29:00,axn,27.84
2024-01-24T03:30:00,axn,27.67
2024-01-24T03:31:00,axn,27.45
2024-01-24T03:32:00,axn,27.81
2024-01-24T03:33:00,axn,27.56
2024-01-24T03:34:00,axn,27.60
2024-01-24T03:35:00,axn,27.43
2024-01-24T03:36:00,axn,27.59
2024-01-24T03:37:00,axn,27.73
2024-01-24T03:38:00,axn,27.61
2024-01-24T03:39:00,axn,27.61
2024-01-24T03:40:00,axn,27.69
2024-01-24T03:41:00,axn,32.84
2024-01-24T03:42:00,axn,27.56
2024-01-24T03:43:00,axn,27.61
2024-01-24T03:44:00,axn,28.60
2024-01-24T03:45:00,axn,27.97
2024-01-24T03:46:00,axn,27.67
2024-01-24T03:47:00,axn,28.02
2024-01-24T03:48:00,axn,27.99
2024-01-24T03:49:00,axn,27.70
2024-01-24T03:50:00,axn,27.80
2024-01-24T03:51:00,axn,27.55
2024-01-24T03:52:00,axn,27.55
2024-01-24T03:53:00,axn,27.72
2024-01-24T03:54:00,axn,27.77
2024-01-24T03:55:00,axn,27.83
2024-01-24T03:56:00,axn,28.24
2024-01-24T03:57:00,axn,27.91
2024-01-24T03:58:00,axn,28.14
2024-01-24T03:59:00,axn,27.80
2024-01-24T04:00:00,axn,27.81
2024-01-24T04:01:00,axn,33.50
2024-01-24T04:02:00,axn,33.84
2024-01-24T04:03:00,axn,33.45
2024-01-24T04:04:00,axn,27.98
2024-01-24T04:05:00,axn,27.79
2024-01-24T04:06:00,axn,27.66
2024-01-24T04:07:00,axn,28.14
2024-01-24T04:08:00,axn,27.74
2024-01-24T04:09:00,axn,27.71
2024-01-24T04:10:00,axn,27.73
2024-01-24T04:11:00,axn,27.89
2024-01-24T04:12:00,axn,27.71
2024-01-24T04:13:00,axn,28.50
2024-01-24T04:14:00,axn,28.35
2024-01-24T04:15:00,axn,27.73
2024-01-24T04:16:00,axn,27.66
2024-01-24T04:17:00,axn,27.67
2024-01-24T04:18:00,axn,27.52
2024-01-24T04:19:00,axn,27.45
2024-01-24T04:20:00,axn,27.40
2024-01-24T04:21:00,axn,27.32
2024-01-24T04:22:00,axn,27.39
2024-01-24T04:23:00,axn,27.43
2024-01-24T04:24:00,axn,28.94
2024-01-24T04:25:00,axn,27.92
2024-01-24T04:26:00,axn,27.25
2024-01-24T04:27:00,axn,27.42
2024-01-24T04:28:00,axn,27.36
2024-01-24T04:29:00,axn,27.38
2024-01-24T04:30:00,axn,27.63
2024-01-24T04:31:00,axn,27.82
2024-01-24T04:32:00,axn,27.46
2024-01-24T04:33:00,axn,27.84
2024-01-24T04:34:00,axn,27.92
2024-01-24T04:35:00,axn,27.87
2024-01-24T04:36:00,axn,27.82
2024-01-24T04:37:00,axn,28.17
2024-01-24T04:38:00,axn,28.14
2024-01-24T04:39:00,axn,28.94
2024-01-24T04:40:00,axn,28.75
2024-01-24T04:41:00,axn,28.74
2024-01-24T04:42:00,axn,28.52
2024-01-24T04:43:00,axn,29.17
2024-01-24T04:44:00,axn,28.65
2024-01-24T04:45:00,axn,27.81
2024-01-24T04:46:00,axn,38.24
2024-01-24T04:47:00,axn,38.38
2024-01-24T04:48:00,axn,38.22
2024-01-24T04:49:00,axn,38.11
2024-01-24T04:50:00,axn,27.77
2024-01-24T04:51:00,axn,27.59
2024-01-24T04:52:00,axn,43.82
2024-01-24T04:53:00,axn,27.66
2024-01-24T04:54:00,axn,28.22
2024-01-24T04:55:00,axn,27.66
2024-01-24T04:56:00,axn,28.26
2024-01-24T04:57:00,axn,28.27
2024-01-24T04:58:00,axn,28.38
2024-01-24T04:59:00,axn,29.26
2024-01-24T05:00:00,axn,29.18
2024-01-24T05:01:00,axn,27.44
2024-01-24T05:02:00,axn,26.94
2024-01-24T05:03:00,axn,26.84
2024-01-24T05:04:00,axn,27.81
2024-01-24T05:05:00,axn,27.42
2024-01-24T05:06:00,axn,27.51
2024-01-24T05:07:00,axn,27.51
2024-01-24T05:08:00,axn,27.23
2024-01-24T05:09:00,axn,27.18
2024-01-24T05:10:00,axn,27.32
2024-01-24T05:11:00,axn,26.94
2024-01-24T05:12:00,axn,27.41
2024-01-24T05:13:00,axn,27.76
2024-01-24T05:14:00,axn,27.81
2024-01-24T05:15:00,axn,26.96
2024-01-24T05:16:00,axn,33.25
2024-01-24T05:17:00,axn,34.37
2024-01-24T05:18:00,axn,34.50
2024-01-24T05:19:00,axn,28.10
2024-01-24T05:20:00,axn,27.46
2024-01-24T05:21:00,axn,28.03
2024-01-24T05:22:00,axn,43.66
2024-01-24T05:23:00,axn,27.82
2024-01-24T05:24:00,axn,27.87
2024-01-24T05:25:00,axn,27.84
2024-01-24T05:26:00,axn,27.77
2024-01-24T05:27:00,axn,27.82
2024-01-24T05:28:00,axn,27.69
2024-01-24T05:29:00,axn,27.63
2024-01-24T05:30:00,axn,27.04
2024-01-24T05:31:00,axn,27.57
2024-01-24T05:32:00,axn,27.63
2024-01-24T05:33:00,axn,27.68
2024-01-24T05:34:00,axn,28.18
2024-01-24T05:35:00,axn,29.87
2024-01-24T05:36:00,axn,29.08
2024-01-24T05:37:00,axn,29.49
2024-01-24T05:38:00,axn,29.91
2024-01-24T05:39:00,axn,29.35
2024-01-24T05:40:00,axn,29.13
2024-01-24T05:41:00,axn,29.93
2024-01-24T05:42:00,axn,30.03
2024-01-24T05:43:00,axn,29.79
2024-01-24T05:44:00,axn,30.37
2024-01-24T05:45:00,axn,29.48
2024-01-24T05:46:00,axn,29.48
2024-01-24T05:47:00,axn,29.87
2024-01-24T05:48:00,axn,29.32
2024-01-24T05:49:00,axn,29.56
2024-01-24T05:50:00,axn,28.61
2024-01-24T05:51:00,axn,28.65
2024-01-24T05:52:00,axn,28.71
2024-01-24T05:53:00,axn,28.72
2024-01-24T05:54:00,axn,29.05
2024-01-24T05:55:00,axn,27.93
2024-01-24T05:56:00,axn,28.23
2024-01-24T05:57:00,axn,29.25
2024-01-24T05:58:00,axn,28.56
2024-01-24T05:59:00,axn,28.13
2024-01-24T06:00:00,axn,28.98
2024-01-24T06:01:00,axn,30.21
2024-01-24T06:02:00,axn,29.97
2024-01-24T06:03:00,axn,29.65
2024-01-24T06:04:00,axn,29.60
2024-01-24T06:05:00,axn,28.97
2024-01-24T06:06:00,axn,28.78
2024-01-24T06:07:00,axn,29.17
2024-01-24T06:08:00,axn,29.67
2024-01-24T06:09:00,axn,29.38
2024-01-24T06:10:00,axn,29.72
2024-01-24T06:11:00,axn,29.60
2024-01-24T06:12:00,axn,29.79
2024-01-24T06:13:00,axn,28.95
2024-01-24T06:14:00,axn,30.00
2024-01-24T06:15:00,axn,29.43
2024-01-24T06:16:00,axn,32.11
2024-01-24T06:17:00,axn,32.08
2024-01-24T06:18:00,axn,29.55
2024-01-24T06:19:00,axn,29.40
2024-01-24T06:20:00,axn,29.66
2024-01-24T06:21:00,axn,29.48
2024-01-24T06:22:00,axn,29.38
2024-01-24T06:23:00,axn,29.38
2024-01-24T06:24:00,axn,29.14
2024-01-24T06:25:00,axn,29.60
2024-01-24T06:26:00,axn,28.82
2024-01-24T06:27:00,axn,28.91
2024-01-24T06:28:00,axn,28.60
2024-01-24T06:29:00,axn,29.11
2024-01-24T06:30:00,axn,29.54
2024-01-24T06:31:00,axn,29.77
2024-01-24T06:32:00,axn,29.34
2024-01-24T06:33:00,axn,29.23
2024-01-24T06:34:00,axn,29.33
2024-01-24T06:35:00,axn,29.21
2024-01-24T06:36:00,axn,30.18
2024-01-24T06:37:00,axn,30.14
2024-01-24T06:38:00,axn,43.79
2024-01-24T06:39:00,axn,43.62
2024-01-24T06:40:00,axn,43.54
2024-01-24T06:41:00,axn,43.34
2024-01-24T06:42:00,axn,43.27
2024-01-24T06:43:00,axn,29.02
2024-01-24T06:44:00,axn,29.16
2024-01-24T06:45:00,axn,29.20
2024-01-24T06:46:00,axn,29.04
2024-01-24T06:47:00,axn,29.12
2024-01-24T06:48:00,axn,29.07
2024-01-24T06:49:00,axn,29.10
2024-01-24T06:50:00,axn,29.08
2024-01-24T06:51:00,axn,29.03
2024-01-24T06:52:00,axn,28.84
2024-01-24T06:53:00,axn,29.45
2024-01-24T06:54:00,axn,29.50
2024-01-24T06:55:00,axn,29.58
2024-01-24T06:56:00,axn,30.17
2024-01-24T06:57:00,axn,29.84
2024-01-24T06:58:00,axn,32.35
2024-01-24T06:59:00,axn,34.55
2024-01-24T07:00:00,axn,34.80
2024-01-24T07:01:00,axn,34.12
2024-01-24T07:02:00,axn,34.56
2024-01-24T07:03:00,axn,35.19
2024-01-24T07:04:00,axn,36.04
2024-01-24T07:05:00,axn,35.89
2024-01-24T07:06:00,axn,35.97
2024-01-24T07:07:00,axn,35.89
2024-01-24T07:08:00,axn,34.99
2024-01-24T07:09:00,axn,35.18
2024-01-24T07:10:00,axn,35.17
2024-01-24T07:11:00,axn,35.17
2024-01-24T07:12:00,axn,35.07
2024-01-24T07:13:00,axn,35.13
2024-01-24T07:14:00,axn,35.14
2024-01-24T07:15:00,axn,36.24
2024-01-24T07:16:00,axn,35.45
2024-01-24T07:17:00,axn,35.60
2024-01-24T07:18:00,axn,35.36
2024-01-24T07:19:00,axn,36.32
2024-01-24T07:20:00,axn,35.44
2024-01-24T07:21:00,axn,35.00
2024-01-24T07:22:00,axn,35.46
2024-01-24T07:23:00,axn,34.58
2024-01-24T07:24:00,axn,35.44
2024-01-24T07:25:00,axn,34.97
2024-01-24T07:26:00,axn,34.84
2024-01-24T07:27:00,axn,35.31
2024-01-24T07:28:00,axn,35.05
2024-01-24T07:29:00,axn,34.10
2024-01-24T07:30:00,axn,34.41
2024-01-24T07:31:00,axn,34.33
2024-01-24T07:32:00,axn,34.35
2024-01-24T07:33:00,axn,34.97
2024-01-24T07:34:00,axn,34.89
2024-01-24T07:35:00,axn,34.22
2024-01-24T07:36:00,axn,34.26
2024-01-24T07:37:00,axn,35.66
2024-01-24T07:38:00,axn,34.27
2024-01-24T07:39:00,axn,34.69
2024-01-24T07:40:00,axn,34.65
2024-01-24T07:41:00,axn,36.03
2024-01-24T07:42:00,axn,35.73
2024-01-24T07:43:00,axn,35.79
2024-01-24T07:44:00,axn,35.05
2024-01-24T07:45:00,axn,36.89
2024-01-24T07:46:00,axn,36.27
2024-01-24T07:47:00,axn,34.59
2024-01-24T07:48:00,axn,34.50
2024-01-24T07:49:00,axn,34.59
2024-01-24T07:50:00,axn,34.46
2024-01-24T07:51:00,axn,35.81
2024-01-24T07:52:00,axn,35.60
2024-01-24T07:53:00,axn,34.55
2024-01-24T07:54:00,axn,36.23
2024-01-24T07:55:00,axn,34.79
2024-01-24T07:56:00,axn,34.88
2024-01-24T07:57:00,axn,35.11
2024-01-24T07:58:00,axn,34.96
2024-01-24T07:59:00,axn,35.50
2024-01-24T08:00:00,axn,35.59
2024-01-24T08:01:00,axn,37.76
2024-01-24T08:02:00,axn,42.11
2024-01-24T08:03:00,axn,40.65
2024-01-24T08:04:00,axn,40.55
2024-01-24T08:05:00,axn,40.27
2024-01-24T08:06:00,axn,41.05
2024-01-24T08:07:00,axn,41.94
2024-01-24T08:08:00,axn,41.63
2024-01-24T08:09:00,axn,41.06
2024-01-24T08:10:00,axn,41.61
2024-01-24T08:11:00,axn,42.39
2024-01-24T08:12:00,axn,42.27
2024-01-24T08:13:00,axn,42.25
2024-01-24T08:14:00,axn,42.32
2024-01-24T08:15:00,axn,43.41
2024-01-24T08:16:00,axn,42.33
2024-01-24T08:17:00,axn,42.19
2024-01-24T08:18:00,axn,42.94
2024-01-24T08:19:00,axn,43.23
2024-01-24T08:20:00,axn,42.92
2024-01-24T08:21:00,axn,42.81
2024-01-24T08:22:00,axn,42.63
2024-01-24T08:23:00,axn,42.42
2024-01-24T08:24:00,axn,42.50
2024-01-24T08:25:00,axn,42.45
2024-01-24T08:26:00,axn,42.62
2024-01-24T08:27:00,axn,43.19
2024-01-24T08:28:00,axn,43.51
2024-01-24T08:29:00,axn,43.02
2024-01-24T08:30:00,axn,42.71
2024-01-24T08:31:00,axn,43.11
2024-01-24T08:32:00,axn,43.31
2024-01-24T08:33:00,axn,43.07
2024-01-24T08:34:00,axn,43.07
2024-01-24T08:35:00,axn,43.16
2024-01-24T08:36:00,axn,43.10
2024-01-24T08:37:00,axn,44.86
2024-01-24T08:38:00,axn,45.29
2024-01-24T08:39:00,axn,54.58
2024-01-24T08:40:00,axn,53.83
2024-01-24T08:41:00,axn,53.88
2024-01-24T08:42:00,axn,53.91
2024-01-24T08:43:00,axn,44.14
2024-01-24T08:44:00,axn,44.09
2024-01-24T08:45:00,axn,46.19
2024-01-24T08:46:00,axn,45.86
2024-01-24T08:47:00,axn,44.46
2024-01-24T08:48:00,axn,44.72
2024-01-24T08:49:00,axn,44.72
2024-01-24T08:50:00,axn,46.31
2024-01-24T08:51:00,axn,45.17
2024-01-24T08:52:00,axn,45.40
2024-01-24T08:53:00,axn,45.44
2024-01-24T08:54:00,axn,44.74
2024-01-24T08:55:00,axn,45.31
2024-01-24T08:56:00,axn,44.80
2024-01-24T08:57:00,axn,43.98
2024-01-24T08:58:00,axn,44.00
2024-01-24T08:59:00,axn,44.55
2024-01-24T09:00:00,axn,44.28
2024-01-24T09:01:00,axn,44.23
2024-01-24T09:02:00,axn,47.42
2024-01-24T09:03:00,axn,44.62
2024-01-24T09:04:00,axn,45.56
2024-01-24T09:05:00,axn,44.44
2024-01-24T09:06:00,axn,44.23
2024-01-24T09:07:00,axn,44.00
2024-01-24T09:08:00,axn,44.36
2024-01-24T09:09:00,axn,45.63
2024-01-24T09:10:00,axn,44.40
2024-01-24T09:11:00,axn,43.99
2024-01-24T09:12:00,axn,43.94
2024-01-24T09:13:00,axn,43.97
2024-01-24T09:14:00,axn,44.15
2024-01-24T09:15:00,axn,45.40
2024-01-24T09:16:00,axn,44.66
2024-01-24T09:17:00,axn,43.69
2024-01-24T09:18:00,axn,43.77
2024-01-24T09:19:00,axn,44.01
2024-01-24T09:20:00,axn,44.01
2024-01-24T09:21:00,axn,44.29
2024-01-24T09:22:00,axn,45.12
2024-01-24T09:23:00,axn,45.11
2024-01-24T09:24:00,axn,45.04
2024-01-24T09:25:00,axn,45.10
2024-01-24T09:26:00,axn,47.33
2024-01-24T09:27:00,axn,46.02
2024-01-24T09:28:00,axn,45.45
2024-01-24T09:29:00,axn,45.32
2024-01-24T09:30:00,axn,45.12
2024-01-24T09:31:00,axn,45.87
2024-01-24T09:32:00,axn,51.41
2024-01-24T09:33:00,axn,51.65
2024-01-24T09:34:00,axn,52.39
2024-01-24T09:35:00,axn,46.63
2024-01-24T09:36:00,axn,46.91
2024-01-24T09:37:00,axn,44.59
2024-01-24T09:38:00,axn,44.75
2024-01-24T09:39:00,axn,45.26
2024-01-24T09:40:00,axn,45.09
2024-01-24T09:41:00,axn,46.94
2024-01-24T09:42:00,axn,44.94
2024-01-24T09:43:00,axn,45.18
2024-01-24T09:44:00,axn,45.11
2024-01-24T09:45:00,axn,44.99
2024-01-24T09:46:00,axn,46.14
2024-01-24T09:47:00,axn,44.79
2024-01-24T09:48:00,axn,45.19
2024-01-24T09:49:00,axn,44.98
2024-01-24T09:50:00,axn,44.80
2024-01-24T09:51:00,axn,44.94
2024-01-24T09:52:00,axn,45.09
2024-01-24T09:53:00,axn,45.20
2024-01-24T09:54:00,axn,45.03
2024-01-24T09:55:00,axn,44.94
2024-01-24T09:56:00,axn,44.10
2024-01-24T09:57:00,axn,46.32
2024-01-24T09:58:00,axn,45.30
2024-01-24T09:59:00,axn,44.82
2024-01-24T10:00:00,axn,44.74
2024-01-24T10:01:00,axn,44.06
2024-01-24T10:02:00,axn,48.83
2024-01-24T10:03:00,axn,48.31
2024-01-24T10:04:00,axn,48.66
2024-01-24T10:05:00,axn,48.71
2024-01-24T10:06:00,axn,44.25
2024-01-24T10:07:00,axn,44.97
2024-01-24T10:08:00,axn,44.88
2024-01-24T10:09:00,axn,45.00
2024-01-24T10:10:00,axn,45.21
2024-01-24T10:11:00,axn,45.23
2024-01-24T10:12:00,axn,45.27
2024-01-24T10:13:00,axn,45.61
2024-01-24T10:14:00,axn,44.81
2024-01-24T10:15:00,axn,44.75
2024-01-24T10:16:00,axn,44.99
2024-01-24T10:17:00,axn,48.33
2024-01-24T10:18:00,axn,47.80
2024-01-24T10:19:00,axn,45.91
2024-01-24T10:20:00,axn,46.46
2024-01-24T10:21:00,axn,45.70
2024-01-24T10:22:00,axn,46.05
2024-01-24T10:23:00,axn,45.23
2024-01-24T10:24:00,axn,45.43
2024-01-24T10:25:00,axn,45.52
2024-01-24T10:26:00,axn,44.79
2024-01-24T10:27:00,axn,45.59
2024-01-24T10:28:00,axn,44.85
2024-01-24T10:29:00,axn,43.65
2024-01-24T10:30:00,axn,43.41
2024-01-24T10:31:00,axn,45.23
2024-01-24T10:32:00,axn,45.63
2024-01-24T10:33:00,axn,46.07
2024-01-24T10:34:00,axn,45.74
2024-01-24T10:35:00,axn,45.06
2024-01-24T10:36:00,axn,44.40
2024-01-24T10:37:00,axn,44.43
2024-01-24T10:38:00,axn,44.25
2024-01-24T10:39:00,axn,45.59
2024-01-24T10:40:00,axn,44.23
2024-01-24T10:41:00,axn,45.82
2024-01-24T10:42:00,axn,60.22
2024-01-24T10:43:00,axn,59.49
2024-01-24T10:44:00,axn,59.33
2024-01-24T10:45:00,axn,59.62
2024-01-24T10:46:00,axn,59.66
2024-01-24T10:47:00,axn,47.56
2024-01-24T10:48:00,axn,45.56
2024-01-24T10:49:00,axn,45.56
2024-01-24T10:50:00,axn,45.37
2024-01-24T10:51:00,axn,45.72
2024-01-24T10:52:00,axn,45.87
2024-01-24T10:53:00,axn,45.58
2024-01-24T10:54:00,axn,45.65
2024-01-24T10:55:00,axn,45.26
2024-01-24T10:56:00,axn,45.42
2024-01-24T10:57:00,axn,45.76
2024-01-24T10:58:00,axn,45.25
2024-01-24T10:59:00,axn,45.65
2024-01-24T11:00:00,axn,45.73
2024-01-24T11:01:00,axn,45.74
2024-01-24T11:02:00,axn,46.67
2024-01-24T11:03:00,axn,46.40
2024-01-24T11:04:00,axn,46.31
2024-01-24T11:05:00,axn,45.64
2024-01-24T11:06:00,axn,45.71
2024-01-24T11:07:00,axn,45.72
2024-01-24T11:08:00,axn,45.54
2024-01-24T11:09:00,axn,45.66
2024-01-24T11:10:00,axn,47.40
2024-01-24T11:11:00,axn,45.62
2024-01-24T11:12:00,axn,45.86
2024-01-24T11:13:00,axn,45.75
2024-01-24T11:14:00,axn,45.73
2024-01-24T11:15:00,axn,46.12
2024-01-24T11:16:00,axn,46.11
2024-01-24T11:17:00,axn,47.50
2024-01-24T11:18:00,axn,46.35
2024-01-24T11:19:00,axn,46.96
2024-01-24T11:20:00,axn,57.43
2024-01-24T11:21:00,axn,45.51
2024-01-24T11:22:00,axn,45.55
2024-01-24T11:23:00,axn,45.59
2024-01-24T11:24:00,axn,45.38
2024-01-24T11:25:00,axn,47.12
2024-01-24T11:26:00,axn,45.48
2024-01-24T11:27:00,axn,44.95
2024-01-24T11:28:00,axn,45.41
2024-01-24T11:29:00,axn,46.50
2024-01-24T11:30:00,axn,45.39
2024-01-24T11:31:00,axn,45.39
2024-01-24T11:32:00,axn,45.63
2024-01-24T11:33:00,axn,45.57
2024-01-24T11:34:00,axn,46.14
2024-01-24T11:35:00,axn,45.31
2024-01-24T11:36:00,axn,47.22
2024-01-24T11:37:00,axn,45.78
2024-01-24T11:38:00,axn,45.93
2024-01-24T11:39:00,axn,46.02
2024-01-24T11:40:00,axn,45.44
2024-01-24T11:41:00,axn,45.47
2024-01-24T11:42:00,axn,46.68
2024-01-24T11:43:00,axn,45.19
2024-01-24T11:44:00,axn,45.25
2024-01-24T11:45:00,axn,45.39
2024-01-24T11:46:00,axn,46.47
2024-01-24T11:47:00,axn,46.67
2024-01-24T11:48:00,axn,45.54
2024-01-24T11:49:00,axn,45.59
2024-01-24T11:50:00,axn,44.56
2024-01-24T11:51:00,axn,44.93
2024-01-24T11:52:00,axn,44.82
2024-01-24T11:53:00,axn,44.83
2024-01-24T11:54:00,axn,45.23
2024-01-24T11:55:00,axn,46.82
2024-01-24T11:56:00,axn,44.12
2024-01-24T11:57:00,axn,45.45
2024-01-24T11:58:00,axn,45.11
2024-01-24T11:59:00,axn,44.95
2024-01-24T12:00:00,axn,45.04
2024-01-24T12:01:00,axn,44.61
2024-01-24T12:02:00,axn,44.53
2024-01-24T12:03:00,axn,45.72
2024-01-24T12:04:00,axn,44.95
2024-01-24T12:05:00,axn,44.82
2024-01-24T12:06:00,axn,44.62
2024-01-24T12:07:00,axn,45.26
2024-01-24T12:08:00,axn,44.42
2024-01-24T12:09:00,axn,45.41
2024-01-24T12:10:00,axn,45.36
2024-01-24T12:11:00,axn,45.77
2024-01-24T12:12:00,axn,44.98
2024-01-24T12:13:00,axn,44.11
2024-01-24T12:14:00,axn,44.77
2024-01-24T12:15:00,axn,44.90
2024-01-24T12:16:00,axn,44.47
2024-01-24T12:17:00,axn,44.34
2024-01-24T12:18:00,axn,44.46
2024-01-24T12:19:00,axn,44.69
2024-01-24T12:20:00,axn,44.92
2024-01-24T12:21:00,axn,44.55
2024-01-24T12:22:00,axn,46.52
2024-01-24T12:23:00,axn,46.27
2024-01-24T12:24:00,axn,45.63
2024-01-24T12:25:00,axn,54.76
2024-01-24T12:26:00,axn,54.07
2024-01-24T12:27:00,axn,56.34
2024-01-24T12:28:00,axn,56.06
2024-01-24T12:29:00,axn,46.60
2024-01-24T12:30:00,axn,45.53
2024-01-24T12:31:00,axn,45.06
2024-01-24T12:32:00,axn,62.84
2024-01-24T12:33:00,axn,43.80
2024-01-24T12:34:00,axn,43.61
2024-01-24T12:35:00,axn,44.98
2024-01-24T12:36:00,axn,43.55
2024-01-24T12:37:00,axn,44.20
2024-01-24T12:38:00,axn,44.25
2024-01-24T12:39:00,axn,44.20
2024-01-24T12:40:00,axn,43.91
2024-01-24T12:41:00,axn,43.71
2024-01-24T12:42:00,axn,43.70
2024-01-24T12:43:00,axn,44.56
2024-01-24T12:44:00,axn,44.34
2024-01-24T12:45:00,axn,45.80
2024-01-24T12:46:00,axn,45.90
2024-01-24T12:47:00,axn,44.90
2024-01-24T12:48:00,axn,45.02
2024-01-24T12:49:00,axn,46.77
2024-01-24T12:50:00,axn,45.47
2024-01-24T12:51:00,axn,45.58
2024-01-24T12:52:00,axn,45.53
2024-01-24T12:53:00,axn,47.05
2024-01-24T12:54:00,axn,46.34
2024-01-24T12:55:00,axn,46.10
2024-01-24T12:56:00,axn,46.52
2024-01-24T12:57:00,axn,46.19
2024-01-24T12:58:00,axn,45.65
2024-01-24T12:59:00,axn,45.78
2024-01-24T13:00:00,axn,45.58
2024-01-24T13:01:00,axn,46.08
2024-01-24T13:02:00,axn,46.10
2024-01-24T13:03:00,axn,46.76
2024-01-24T13:04:00,axn,47.23
2024-01-24T13:05:00,axn,47.80
2024-01-24T13:06:00,axn,46.21
2024-01-24T13:07:00,axn,46.27
2024-01-24T13:08:00,axn,45.24
2024-01-24T13:09:00,axn,45.25
2024-01-24T13:10:00,axn,45.18
2024-01-24T13:11:00,axn,45.23
2024-01-24T13:12:00,axn,45.86
2024-01-24T13:13:00,axn,44.86
2024-01-24T13:14:00,axn,45.20
2024-01-24T13:15:00,axn,45.34
2024-01-24T13:16:00,axn,47.38
2024-01-24T13:17:00,axn,46.27
2024-01-24T13:18:00,axn,46.25